TimeCDT,TemperatureF,Dew PointF,Humidity,Sea Level PressureIn,VisibilityMPH,Wind Direction,Wind SpeedMPH,Gust SpeedMPH,PrecipitationIn,Events,Conditions,WindDirDegrees,DateUTC
12:54 AM,45.0,43.0,93,30.00,10.0,Calm,Calm,-,N/A,,Overcast,0,2013-10-17 05:54:00
1:54 AM,46.9,44.1,90,29.99,10.0,Calm,Calm,-,N/A,,Overcast,0,2013-10-17 06:54:00
2:54 AM,46.9,45.0,93,29.99,10.0,Calm,Calm,-,0.00,,Overcast,0,2013-10-17 07:54:00
3:54 AM,46.9,45.0,93,29.98,10.0,Calm,Calm,-,0.00,,Overcast,0,2013-10-17 08:54:00
4:54 AM,48.0,45.0,89,29.98,10.0,Calm,Calm,-,0.00,,Overcast,0,2013-10-17 09:54:00
5:54 AM,48.0,45.0,89,29.99,10.0,Calm,Calm,-,N/A,,Overcast,0,2013-10-17 10:54:00
6:26 AM,48.2,44.6,87,29.99,10.0,WSW,4.6,-,N/A,,Overcast,250,2013-10-17 11:26:00
6:54 AM,48.0,46.0,93,29.99,10.0,WSW,4.6,-,0.00,,Overcast,250,2013-10-17 11:54:00
7:45 AM,48.2,46.4,93,29.98,10.0,Calm,Calm,-,N/A,,Overcast,0,2013-10-17 12:45:00
7:54 AM,48.0,46.0,93,29.99,10.0,Calm,Calm,-,N/A,,Overcast,0,2013-10-17 12:54:00
8:54 AM,48.9,45.0,86,30.00,10.0,SW,3.5,-,N/A,,Overcast,230,2013-10-17 13:54:00
9:54 AM,52.0,46.0,80,30.01,10.0,West,5.8,-,N/A,,Mostly Cloudy,260,2013-10-17 14:54:00
10:54 AM,55.0,45.0,69,30.01,10.0,WNW,5.8,-,N/A,,Partly Cloudy,290,2013-10-17 15:54:00
11:54 AM,59.0,44.1,58,29.99,10.0,WSW,11.5,-,N/A,,Mostly Cloudy,240,2013-10-17 16:54:00
12:54 PM,63.0,41.0,45,29.96,10.0,WSW,13.8,18.4,N/A,,Mostly Cloudy,240,2013-10-17 17:54:00
1:54 PM,63.0,39.0,41,29.94,10.0,WSW,13.8,20.7,N/A,,Scattered Clouds,250,2013-10-17 18:54:00
2:54 PM,64.0,37.0,37,29.93,10.0,SW,16.1,20.7,N/A,,Scattered Clouds,230,2013-10-17 19:54:00
3:54 PM,64.0,36.0,35,29.91,10.0,WSW,13.8,-,N/A,,Partly Cloudy,250,2013-10-17 20:54:00
4:54 PM,64.0,37.0,37,29.92,10.0,WSW,12.7,-,N/A,,Partly Cloudy,240,2013-10-17 21:54:00
5:54 PM,59.0,39.0,48,29.92,10.0,SW,5.8,-,N/A,,Partly Cloudy,220,2013-10-17 22:54:00
6:54 PM,53.1,41.0,64,29.94,10.0,Calm,Calm,-,N/A,,Clear,0,2013-10-17 23:54:00
7:54 PM,48.0,43.0,83,29.96,10.0,Calm,Calm,-,N/A,,Clear,0,2013-10-18 00:54:00
8:54 PM,46.0,42.1,86,29.97,10.0,Calm,Calm,-,N/A,,Clear,0,2013-10-18 01:54:00
9:54 PM,45.0,42.1,90,29.97,10.0,Calm,Calm,-,N/A,,Clear,0,2013-10-18 02:54:00
10:54 PM,45.0,41.0,86,29.97,10.0,Calm,Calm,-,N/A,,Clear,0,2013-10-18 03:54:00
11:54 PM,46.0,39.9,79,29.96,10.0,WSW,6.9,-,N/A,,Clear,250,2013-10-18 04:54:00